Farmington, MO

9:58 AM CST on December 09, 2019 (GMT -0600)
Farmington Regional

Weather History for KFAM - November, 2019

Change the Weather History Date:

Tuesday, November 12, 2019

  Actual Average Record
Temperature  
Mean Temperature 18 °F -  
Max Temperature 25 °F 53 °F 73 °F (2010)
Min Temperature 10 °F 36 °F 10 °F (2019)
Degree Days  
Heating Degree Days 48    
Moisture  
Dew Point 6 °F    
Average Humidity 67    
Maximum Humidity 81    
Minimum Humidity 45    
Precipitation  
Precipitation 0.00 in - - ()
Sea Level Pressure  
Sea Level Pressure 30.59 in    
Wind  
Wind Speed 9 mph (North)    
Max Wind Speed 16 mph    
Max Gust Speed 24 mph    
Visibility 10 miles    
Events Snow    
Averages and records for this station are not official NWS values.
T = Trace of Precipitation, MM = Missing Value Source: NWS Daily Summary

Daily Weather History Graph

Daily Weather History Graph

Search for Another Location

Airport or City:

Astronomy

Nov. 12, 2019 Rise Set
Actual Time 6:38 AM CST 4:52 PM CST
Civil Twilight 6:10 AM CST 5:20 PM CST
Nautical Twilight 5:39 AM CST 5:52 PM CST
Astronomical Twilight 5:08 AM CST 6:23 PM CST
Moon 5:19 PM CST (11/12) 6:31 AM CST (11/12)
Length of Visible Light 11h 09m
Length of Day
10h 14m
Full, 100% of the Moon is Illuminated
Nov 12
Full
Nov 19
Last Quarter
Nov 26
New
Dec 4
First Quarter
Dec 11
Full

Hourly Weather History & Observations

Time (CST) Temp. Windchill Dew Point Humidity Pressure Visibility Wind Dir Wind Speed Gust Speed Precip Events Conditions
12:56 AM 16.0 °F 1.1 °F 8.1 °F 71% 30.58 in 9.0 mi NNW 15.0 mph 24.2 mph 0.00 in Snow Light Snow
1:56 AM 15.1 °F 3.3 °F 7.0 °F 70% 30.59 in 9.0 mi North 9.2 mph 19.6 mph 0.00 in Snow Light Snow
2:19 AM 14.0 °F -0.2 °F 5.0 °F 67% 30.51 in 10.0 mi North 12.7 mph - 0.00 in   Scattered Clouds
2:56 AM 14.0 °F 2.0 °F 5.0 °F 67% 30.60 in 10.0 mi NNW 9.2 mph - 0.00 in Snow Light Snow
3:56 AM 12.0 °F -4.5 °F 6.1 °F 77% 30.61 in 10.0 mi NNW 16.1 mph - 0.00 in   Mostly Cloudy
4:07 AM 12.2 °F -2.5 °F 5.0 °F 73% 30.53 in 10.0 mi NNW 12.7 mph 18.4 mph N/A   Partly Cloudy
4:56 AM 10.9 °F -2.6 °F 5.0 °F 77% 30.62 in 10.0 mi NNW 10.4 mph - N/A   Clear
5:56 AM 10.0 °F -2.9 °F 5.0 °F 80% 30.63 in 10.0 mi NW 9.2 mph - N/A   Clear
7:56 AM 10.9 °F -4.1 °F 5.0 °F 77% 30.67 in 10.0 mi NNW 12.7 mph - N/A   Clear
8:56 AM 14.0 °F -0.2 °F 5.0 °F 67% 30.69 in 10.0 mi NNW 12.7 mph 18.4 mph 0.00 in   Clear
9:56 AM 17.1 °F 5.8 °F 5.0 °F 59% 30.68 in 10.0 mi North 9.2 mph - N/A   Partly Cloudy
10:56 AM 19.9 °F 10.1 °F 6.1 °F 55% 30.66 in 10.0 mi North 8.1 mph - N/A   Clear
11:56 AM 21.9 °F 14.5 °F 7.0 °F 53% 30.65 in 10.0 mi WNW 5.8 mph - N/A   Clear
12:56 PM 25.0 °F - 8.1 °F 49% 30.62 in 10.0 mi Calm Calm - N/A   Clear
1:56 PM 25.0 °F 19.3 °F 6.1 °F 45% 30.59 in 10.0 mi Variable 4.6 mph - N/A   Clear
2:56 PM 24.1 °F 18.2 °F 6.1 °F 46% 30.56 in 10.0 mi Variable 4.6 mph - N/A   Clear
3:56 PM 24.1 °F 18.2 °F 6.1 °F 46% 30.56 in 10.0 mi North 4.6 mph - N/A   Clear
4:56 PM 19.9 °F 13.4 °F 6.1 °F 55% 30.56 in 10.0 mi NNE 4.6 mph - N/A   Clear
5:56 PM 17.1 °F 10.0 °F 9.0 °F 71% 30.57 in 10.0 mi NE 4.6 mph - N/A   Clear
6:56 PM 15.1 °F 6.4 °F 7.0 °F 70% 30.57 in 10.0 mi East 5.8 mph - N/A   Clear
7:56 PM 12.9 °F - 6.1 °F 74% 30.55 in 10.0 mi Calm Calm - N/A   Clear
8:56 PM 12.0 °F 5.9 °F 7.0 °F 80% 30.54 in 10.0 mi South 3.5 mph - N/A   Clear
9:56 PM 10.9 °F - 5.0 °F 77% 30.53 in 10.0 mi Calm Calm - N/A   Clear
10:56 PM 10.9 °F 2.9 °F 6.1 °F 81% 30.50 in 10.0 mi South 4.6 mph - N/A   Clear
11:56 PM 10.0 °F - 3.9 °F 76% 30.48 in 10.0 mi Calm Calm - N/A   Clear